User: anonymous   Login
Location: Newark
(48.9886°N, 1.2358°E)
Time: 21:51:52
(UTC+00:00)
Language:

Transit 2A Rocket - Orbit

View from above orbital plane
View from above orbital plane
View from above satellite
View from above satellite

Ground track
Ground track

The orbit data is extracted from the following two-line orbital elements,

1    47U 60007C   19317.13683133 -.00000028  00000-0  18675-4 0  9995
2    47  66.6676  16.0634 0220517 102.7316 259.8533 14.42057900103794
Epoch (UTC): 13 November 2019 03:17:02
Eccentricity: 0.0220517
inclination: 66.6676°
perigee height: 594 km
apogee height: 909 km
right ascension of ascending node: 16.0634°
argument of perigee: 102.7316°
revolutions per day: 14.42057900
mean anomaly at epoch: 259.8533°
orbit number at epoch: 10379

The dashed part of the orbit path shows where the satellite is in the earth's shadow,  

DLR